Location: ????????
(60.4333°N, 46.4710°E)
Time: 17:46:51
(UTC+00:00)

SeaSat 1 - Pass Details

Date: 25 November 2020
Orbit: 745 x 746 km, 108.0° (Epoch: 16 January)

Event Time Altitude Azimuth Distance (km) Brightness Sun altitude
Exits shadow 15:17:33 29° 22° (NNE) 1,349 3.5 -22.5°
Maximum altitude 15:17:35 29° 22° (NNE) 1,349 3.5 -22.5°
Drops below altitude 10° 15:21:49 10° 323° (NW) 2,276 5.4 -23.1°
Sets 15:24:19 0° 313° (NW) 3,202 6.4 -23.4°
